Back to catalog

STARLINK-6036

AliveCommunicationsVLEO
NORAD 56800·PAYLOAD·🇺🇸 United States

Launched May 31, 2023 from Vandenberg Space Force Base

Loading…

Next Passes (next 24 hours)

TLE

FreshSource: CelesTrak SupGP

Epoch: Sep 15, 2026, 02:25 UTC

1 56800C 23078AK  26258.10118056 -.00036377  00000+0 -30484-2 0  2580
2 56800  70.0015 226.9279 0003575 266.1552 358.7051 14.98348681    10

Track STARLINK-6036 in real time with AllMySat

Download on the App Store